Epoch = 2010 Mar. 25.0 TT
T = 2010 Mar. 5.73233 TT Peri. = 107.76353
e = 0.3532609 Node = 231.05130 2000.0
q = 2.3643294 AU Incl. = 11.52093
a = 3.6557699 AU n = 0.14100542 P = 6.99 years
Finding Charts
Magnitudes Graph
m1 = 7.3 + 5 log d + 20 log r(t + 70)
The orbital elements are printed on CBET 1772.
The charts are made with StellaNavigator Ver.8 (AstroArts).
The magnitudes graphs are made with Comet for Windows.
Copyright(C) Seiichi Yoshida (comet@aerith.net). All rights reserved.